Flag for Canada Weather past 2 weeks in Prince George, British Columbia, Canada

Now
61 °F

Mostly cloudy.


Feels Like: 61 °F
Forecast: 48 / 64 °F
Wind: 5 mph from South

Location: Prince George

Current Time: Aug 29, 2015 at 9:08:40 PM

Latest Report: Aug 29, 2015 at 8:00 PM


Visibility: 9 mi

Pressure: 29.36 "Hg (27.44 "Hg at 573m altitude)

Humidity: 68%

Dew point: 50 °F

Location of Prince GeorgeLocation

Historic Weather in Prince George — Graph

°F

Prince George temperature yesterday

Maximum temperature yesterday: 70 °F (at 4:00 PM)
Minimum temperature yesterday: 43 °F (at 11:58 PM)
Average temperature yesterday: 55 °F

Past Weeks' High & Low Weather Summary

 TemperatureHumidityPressure
High79 °F (Aug 18, 4:00 PM)100% (Aug 17, 6:00 AM)30.25 "Hg (Aug 17, 6:00 AM)
Low30 °F (Aug 22, 6:00 AM)25% (Aug 26, 4:00 PM)29.37 "Hg (Aug 29, 7:00 PM)
Average56 °F67%29.99 "Hg
* Reported Aug 14 7:00 PM — Aug 29 7:00 PM, Prince George, Weather by CustomWeather, © 2015

Note: Actual official high and low records may vary slightly from our data, if they occured in-between our weather recording intervals... More about our weather records

Advertising

Prince George weather history for previous 24 hours

 ConditionsComfort  
Time TempWeatherWind HumidityBarometerVisibility
7:00 PM
Sat, Aug 29
61 °FLight rain. Mostly cloudy.5 mph77%29.37 "Hg9 mi
6:00 PM63 °FOvercast.17 mph68%29.39 "Hg9 mi
5:00 PM61 °FSunny.7 mph83%29.40 "Hg9 mi
4:00 PM57 °FSunny.5 mph94%29.39 "Hg9 mi
3:03 PM55 °FPartly sunny.6 mph100%29.39 "Hg9 mi
2:04 PM55 °FScattered clouds.6 mph94%29.38 "Hg9 mi
1:00 PM55 °FLight rain. More clouds than sun.3 mph94%29.41 "Hg9 mi
12:02 PM55 °FLight rain. Mostly cloudy.6 mph88%29.43 "Hg9 mi
11:00 AM54 °FOvercast.12 mph94%29.46 "Hg9 mi
10:00 AM52 °FOvercast.10 mph94%29.50 "Hg9 mi
9:00 AM48 °FOvercast.8 mph100%29.54 "Hg9 mi
8:00 AM46 °FScattered clouds.8 mph100%29.58 "Hg9 mi
7:00 AM45 °FFog.8 mph100%29.61 "Hg0 mi
6:00 AM41 °FFog.2 mph93%29.65 "Hg0 mi
5:00 AM43 °FFog.2 mph93%29.67 "Hg0 mi
4:00 AM43 °FFog.2 mph100%29.68 "Hg0 mi
3:50 AM45 °FFog.3 mph100%29.70 "Hg1 mi
3:00 AM46 °FFog.6 mph100%29.70 "Hg0 mi
2:00 AM46 °FFog.6 mph100%29.72 "Hg0 mi
1:03 AM48 °FFog.7 mph100%29.75 "Hg0 mi
12:00 AM43 °FFog.3 mph100%29.77 "Hg3 mi
11:58 PM
Fri, Aug 28
43 °FFog.3 mph93%29.77 "Hg3 mi
11:00 PM45 °FPassing clouds.6 mph93%29.76 "Hg9 mi
10:00 PM46 °FPassing clouds.5 mph93%29.77 "Hg9 mi
9:00 PM52 °FSunny.6 mph88%29.75 "Hg9 mi
Weather by CustomWeather, © 2015

See weather overviewHow to use our weather pages